Location: Hartford
(41.7640°N, 72.6860°W)
Time: 08:30:25
(UTC-04:00)

Amateur Radio Satellites - All Passes

Search period start: 30 May 2015 08:00
Search period end: 31 May 2015 08:00
Location: Hartford, 41.7640°N, 72.6860°W

Satellite Date Start Highest point End Downlink Frequencies (MHz)
Time Altitude Azimuth
AIST 1 30 May 08:02:07 08:06:22 49° 266° (W) 08:10:37
BRITE-PL 30 May 08:13:58 08:18:56 32° 93° (E) 08:23:42 437.365/2234.400
STRAND 1 30 May 08:41:38 08:43:16 11° 274° (W) 08:44:33 437.568
DOVE 4 30 May 08:42:26 08:46:21 23° 91° (E) 08:50:12 437.250
YUBILEINY 30 May 08:48:07 08:56:11 38° 290° (WNW) 09:04:06 435.215
RS-15 30 May 08:56:53 09:07:46 83° 120° (ESE) 09:18:59 29.354- 29.394
CUTE-I 30 May 09:01:59 09:04:47 14° 300° (WNW) 09:07:20 437.470
PCSat 30 May 09:15:00 09:20:24 62° 57° (ENE) 09:25:46 145.827
UNISAT 6 30 May 09:22:12 09:24:51 16° 65° (ENE) 09:27:39 437.425
CANX-2 30 May 09:23:15 09:27:26 61° 100° (E) 09:31:35 2200.000
HO-68 30 May 09:24:07 09:31:10 59° 101° (ESE) 09:38:12 435.675
CUTE 1.7 + AOD 2 30 May 09:26:15 09:30:25 59° 100° (E) 09:34:34 437.475
SO-50 30 May 09:28:57 09:31:22 14° 33° (NNE) 09:33:56 436.795
CINEMA 3 30 May 09:30:53 09:35:03 33° 95° (E) 09:39:05 145.822/145.860
GOMX 1 30 May 09:36:06 09:41:26 70° 285° (WNW) 09:46:24 467.674
Cosmos 2504 30 May 09:37:21 09:45:21 58° 93° (E) 09:52:52 435.465 / 435.565
SEEDS 30 May 09:43:05 09:47:17 76° 103° (ESE) 09:51:27 437.485
ZACube-1 30 May 09:45:09 09:47:11 13° 88° (E) 09:49:24 437.345
Oscar 11 30 May 09:48:01 09:51:37 26° 94° (E) 09:55:16 145.826/435.025
COMPASS 1 30 May 09:50:27 09:54:37 74° 101° (ESE) 09:58:45 437.405
BRITE-PL 30 May 09:52:20 09:57:26 35° 292° (WNW) 10:02:13 437.365/2234.400
CUBEBUG 2 30 May 09:58:09 10:02:02 30° 95° (E) 10:05:51 437.445
AAUSAT CUBESAT 2 30 May 09:59:26 10:03:36 80° 103° (ESE) 10:07:44 437.432
DELFI C3 30 May 10:02:42 10:06:06 26° 95° (E) 10:09:33 145.870
ANTELSAT 30 May 10:03:43 10:08:03 39° 71° (ENE) 10:12:22 437.575/2403.000
QB50P1 30 May 10:14:53 10:18:12 23° 68° (ENE) 10:21:37 145.935-145.965
POLYITAN 1 30 May 10:18:45 10:22:15 25° 69° (ENE) 10:25:51 437.675
DOVE 4 30 May 10:19:35 10:24:18 40° 290° (WNW) 10:28:44 437.250
TIGRISAT 30 May 10:34:24 10:39:05 80° 75° (ENE) 10:43:42 435.000
UWE-3 30 May 10:37:25 10:41:46 68° 101° (E) 10:45:58 435.000/436.395/437.385
FUNcube-1 30 May 10:37:34 10:41:45 51° 99° (E) 10:45:51 145.935
NANOSAT C BR1 30 May 10:43:58 10:48:02 45° 73° (ENE) 10:52:10 145.865
HUMSAT D 30 May 10:44:01 10:47:32 27° 95° (E) 10:51:03 437.325/437.525
50 SAT 30 May 10:49:40 10:52:04 16° 91° (E) 10:54:35 437.505
AISAT 30 May 10:53:58 10:57:08 19° 92° (E) 11:00:25 437.250
QB50P2 30 May 10:54:36 10:58:50 62° 74° (ENE) 11:03:06 145.880/145.840
UNISAT 6 30 May 10:56:36 11:01:13 59° 260° (W) 11:05:48 437.425
PCSat 30 May 10:59:37 11:03:22 19° 253° (WSW) 11:06:55 145.827
CANX-2 30 May 11:01:00 11:02:55 13° 296° (WNW) 11:04:38 2200.000
CUTE 1.7 + AOD 2 30 May 11:03:53 11:05:53 13° 296° (WNW) 11:07:43 437.475
DUCHIFAT 1 30 May 11:04:42 11:08:58 76° 76° (ENE) 11:13:17 145.980
POPSAT HIP 1 30 May 11:05:51 11:10:08 81° 76° (ENE) 11:14:28 437.405
SO-50 30 May 11:07:58 11:12:55 67° 54° (NE) 11:17:48 436.795
CINEMA 3 30 May 11:08:18 11:12:07 25° 293° (WNW) 11:15:45 145.822/145.860
BUGSAT 1 30 May 11:11:07 11:15:13 61° 74° (ENE) 11:19:25 437.445
RS-15 30 May 11:11:43 11:21:35 35° 327° (NNW) 11:31:38 29.354- 29.394
HO-68 30 May 11:12:33 11:18:32 29° 299° (WNW) 11:24:21 435.675
UKube-1 30 May 11:13:38 11:17:55 54° 100° (E) 11:22:11 .
ZACube-1 30 May 11:19:47 11:23:58 51° 287° (WNW) 11:28:03 437.345
SEEDS 30 May 11:21:57 11:22:33 10° 297° (WNW) 11:22:54 437.485
Oscar 11 30 May 11:24:06 11:27:46 27° 291° (WNW) 11:31:23 145.826/435.025
GONETS M04 30 May 11:24:11 11:28:59 17° 78° (ENE) 11:34:19
DANDE 30 May 11:24:15 11:28:45 18° 79° (E) 11:34:01 436.750
DX 1 30 May 11:27:50 11:32:16 85° 107° (ESE) 11:36:40 434.975-435.025
CUSAT 1 30 May 11:28:53 11:34:42 25° 84° (E) 11:41:08 437.405
COMPASS 1 30 May 11:28:58 11:29:46 10° 297° (WNW) 11:30:20 437.405
Cosmos 2504 30 May 11:32:11 11:39:10 29° 291° (WNW) 11:45:35 435.465 / 435.565
CUBEBUG 2 30 May 11:35:02 11:38:37 24° 292° (WNW) 11:42:02 437.445
DELFI C3 30 May 11:37:52 11:41:08 24° 291° (WNW) 11:44:19 145.870
ANTELSAT 30 May 11:41:22 11:44:59 21° 267° (W) 11:48:28 437.575/2403.000
CUBEBUG 1 30 May 11:44:07 11:48:08 33° 96° (E) 11:52:10 437.445
QB50P1 30 May 11:50:02 11:53:55 32° 264° (W) 11:57:48 145.935-145.965
POLYITAN 1 30 May 11:54:17 11:58:04 29° 265° (W) 12:01:50 437.675
VELOX 1 30 May 11:56:24 12:00:55 86° 103° (ESE) 12:05:24 145.980
SPROUT 30 May 12:09:19 12:12:09 17° 91° (E) 12:15:06 437.525
ESTCUBE 1 30 May 12:13:54 12:18:28 81° 101° (E) 12:23:01 437.505/2401.250
FUNcube-1 30 May 12:15:12 12:17:41 15° 295° (WNW) 12:20:00 145.935
TIGRISAT 30 May 12:15:34 12:16:27 10° 273° (W) 12:17:01 435.000
UWE-3 30 May 12:16:00 12:17:46 12° 297° (WNW) 12:19:16 435.000/436.395/437.385
TISAT 1 30 May 12:18:16 12:20:40 15° 90° (E) 12:23:16 437.305
HUMSAT D 30 May 12:19:48 12:23:13 25° 291° (WNW) 12:26:31 437.325/437.525
Oscar 19 30 May 12:20:41 12:24:29 22° 65° (ENE) 12:28:26 437.125/150
NANOSAT C BR1 30 May 12:21:27 12:24:10 16° 269° (W) 12:26:44 145.865
50 SAT 30 May 12:23:24 12:26:57 35° 289° (WNW) 12:30:27 437.505
AISAT 30 May 12:29:41 12:33:56 40° 289° (WNW) 12:38:06 437.250
QB50P2 30 May 12:33:33 12:35:13 12° 272° (W) 12:36:38 145.880/145.840
ITAMSAT 1 30 May 12:45:58 12:47:13 11° 58° (ENE) 12:48:46 435.822/435.867
BUGSAT 1 30 May 12:49:44 12:51:12 11° 272° (W) 12:52:25 437.445
SO-50 30 May 12:49:55 12:53:00 16° 250° (WSW) 12:55:51 436.795
UKube-1 30 May 12:51:05 12:53:39 15° 296° (WNW) 12:56:03 .
DANDE 30 May 13:03:15 13:10:45 83° 98° (E) 13:19:23 436.750
DX 1 30 May 13:07:11 13:07:54 10° 299° (WNW) 13:08:22 434.975-435.025
CUSAT 1 30 May 13:08:56 13:16:38 75° 282° (WNW) 13:25:02 437.405
GONETS M04 30 May 13:15:49 13:24:40 85° 97° (E) 13:33:34
CUBEBUG 1 30 May 13:20:45 13:24:21 24° 292° (WNW) 13:27:51 437.445
ITUPSAT 1 30 May 13:21:43 13:23:31 12° 88° (E) 13:25:35 437.325
BEESAT 30 May 13:26:24 13:28:49 14° 89° (E) 13:31:29 436.000
RS-15 30 May 13:30:28 13:38:37 22° 1° (N) 13:47:03 29.354- 29.394
SWISSCUBE 30 May 13:34:49 13:38:09 19° 92° (E) 13:41:37 437.505
VELOX 1 30 May 13:35:59 13:36:51 10° 299° (WNW) 13:37:28 145.980
Gurwin Techsat 1B 30 May 13:42:00 13:46:41 34° 68° (ENE) 13:51:28 435.225
SPROUT 30 May 13:44:22 13:48:28 42° 288° (WNW) 13:52:32 437.525
TISAT 1 30 May 13:52:39 13:56:46 46° 287° (WNW) 14:00:50 437.305
ESTCUBE 1 30 May 13:53:15 13:54:46 11° 298° (WNW) 13:56:03 437.505/2401.250
Cosmos 2499 30 May 13:57:21 14:03:54 30° 87° (E) 14:10:16 435.465 / 435.565
Oscar 19 30 May 13:58:28 14:03:32 50° 261° (W) 14:08:35 437.125/150
O/OREOS (USA 219) 30 May 14:00:03 14:02:15 14° 100° (E) 14:04:40 437.305
AO-7 30 May 14:08:41 14:14:33 23° 53° (NE) 14:20:44 29.400- 29.500
ITAMSAT 1 30 May 14:20:48 14:25:57 80° 76° (ENE) 14:31:11 435.822/435.867
JAS-2 30 May 14:27:17 14:31:40 21° 65° (ENE) 14:35:55 435.910
DANDE 30 May 14:48:55 14:55:12 24° 300° (WNW) 15:01:39 436.750
CUSAT 1 30 May 14:55:38 15:00:57 18° 304° (WNW) 15:05:59 437.405
ITUPSAT 1 30 May 14:57:13 15:02:01 71° 285° (WNW) 15:06:47 437.325
STARS 30 May 15:00:03 15:02:16 14° 89° (E) 15:04:41 437.465
BEESAT 30 May 15:02:26 15:07:10 62° 286° (WNW) 15:11:52 436.000
SWISSCUBE 30 May 15:11:42 15:16:17 46° 288° (WNW) 15:20:50 437.505
GONETS M04 30 May 15:16:19 15:22:51 21° 299° (WNW) 15:29:03
Gurwin Techsat 1B 30 May 15:21:59 15:26:41 31° 265° (W) 15:31:21 435.225
HORYU 2 30 May 15:31:59 15:36:25 65° 74° (ENE) 15:40:52 437.375
O/OREOS (USA 219) 30 May 15:36:49 15:41:15 56° 296° (WNW) 15:45:42 437.305
KKS-1 30 May 15:40:11 15:44:38 62° 101° (E) 15:49:02 437.445
RS-15 30 May 15:45:19 15:55:37 37° 34° (NE) 16:06:30 29.354- 29.394
Cosmos 2499 30 May 15:49:00 15:56:47 52° 284° (WNW) 16:04:01 435.465 / 435.565
AO-7 30 May 15:58:09 16:06:28 88° 254° (WSW) 16:14:51 29.400- 29.500
ITAMSAT 1 30 May 16:04:05 16:06:13 12° 273° (W) 16:08:02 435.822/435.867
JAS-2 30 May 16:10:00 16:16:29 63° 258° (WSW) 16:22:14 435.910
STARS 30 May 16:34:48 16:39:08 54° 287° (WNW) 16:43:25 437.465
BEESAT 2 30 May 16:43:46 16:47:11 26° 115° (ESE) 16:50:43 435.950
YUBILEINY 30 May 17:01:05 17:07:37 24° 63° (ENE) 17:14:26 435.215
AIST 2 30 May 17:01:23 17:02:46 12° 109° (ESE) 17:04:23 435.215
CUTE-I 30 May 17:04:14 17:07:53 20° 63° (ENE) 17:11:41 437.470
HORYU 2 30 May 17:11:42 17:13:34 12° 272° (W) 17:15:12 437.375
Cosmos 2491 30 May 17:13:53 17:14:58 10° 74° (ENE) 17:16:50 435.465 / 435.565
KKS-1 30 May 17:18:24 17:20:48 14° 297° (WNW) 17:23:01 437.445
Cubesat XI-IV 30 May 17:25:03 17:29:33 30° 67° (ENE) 17:34:10 437.490
BEESAT 3 30 May 17:26:36 17:30:40 85° 301° (WNW) 17:34:49 437.485
MOZHAYETS 4 30 May 17:37:38 17:42:14 87° 290° (WNW) 17:46:50
CUBESAT XI-V 30 May 17:53:08 17:54:17 11° 86° (E) 17:55:44 437.345
AO-7 30 May 17:55:09 18:00:34 18° 272° (W) 18:05:29 29.400- 29.500
RS-15 30 May 17:57:49 18:09:30 82° 239° (WSW) 18:21:38 29.354- 29.394
BEESAT 2 30 May 18:21:30 18:25:12 31° 312° (NW) 18:28:55 435.950
AIST 2 30 May 18:36:36 18:40:51 71° 304° (NW) 18:45:08 435.215
CUTE-I 30 May 18:42:19 18:47:33 58° 259° (W) 18:52:49 437.470
YUBILEINY 30 May 18:56:49 19:05:31 76° 265° (W) 19:14:11 435.215
Cosmos 2491 30 May 19:01:38 19:10:13 63° 92° (E) 19:18:56 435.465 / 435.565
Cubesat XI-IV 30 May 19:04:40 19:09:34 36° 263° (W) 19:14:27 437.490
PRISM 30 May 19:06:20 19:09:48 25° 95° (E) 19:13:20 437.425
BEESAT 3 30 May 19:07:32 19:09:21 12° 323° (NW) 19:11:03 437.485
GOMX 1 30 May 19:07:43 19:11:08 18° 63° (ENE) 19:14:49 467.674
STRAND 1 30 May 19:08:55 19:13:15 28° 94° (E) 19:17:41 437.568
BRITE-PL 30 May 19:24:22 19:29:08 37° 69° (ENE) 19:34:15 437.365/2234.400
CUBESAT XI-V 30 May 19:27:39 19:32:22 76° 284° (WNW) 19:37:04 437.345
Cosmos 2504 30 May 19:30:35 19:35:05 18° 62° (ENE) 19:39:54 435.465 / 435.565
DOVE 4 30 May 19:47:35 19:51:51 27° 67° (ENE) 19:56:18 437.250
HO-68 30 May 19:52:49 19:59:31 45° 66° (ENE) 20:06:18 435.675
RS-15 30 May 20:12:26 20:20:34 21° 258° (WSW) 20:28:07 29.354- 29.394
CANX-2 30 May 20:16:20 20:20:22 44° 73° (ENE) 20:24:27 2200.000
AIST 2 30 May 20:18:44 20:20:16 11° 325° (NW) 20:21:40 435.215
CUTE 1.7 + AOD 2 30 May 20:19:15 20:23:16 43° 73° (ENE) 20:27:19 437.475
AIST 1 30 May 20:31:27 20:35:43 85° 278° (W) 20:40:02
CINEMA 3 30 May 20:32:11 20:36:39 34° 70° (ENE) 20:41:12 145.822/145.860
SEEDS 30 May 20:35:12 20:39:18 53° 74° (ENE) 20:43:24 437.485
PRISM 30 May 20:41:41 20:45:14 27° 291° (WNW) 20:48:43 437.425
ZACube-1 30 May 20:41:45 20:43:56 14° 64° (ENE) 20:46:19 437.345
COMPASS 1 30 May 20:41:45 20:45:48 50° 74° (ENE) 20:49:52 437.405
Oscar 11 30 May 20:43:25 20:46:43 22° 68° (ENE) 20:50:07 145.826/435.025
GOMX 1 30 May 20:43:28 20:48:42 67° 260° (W) 20:54:10 467.674
M-CUBED/EXP-1 PRIME 30 May 20:47:17 20:50:34 71° 290° (WNW) 20:53:55 437.505
STRAND 1 30 May 20:47:50 20:52:32 36° 291° (WNW) 20:57:12 437.568
AAUSAT CUBESAT 2 30 May 20:50:16 20:54:19 54° 74° (ENE) 20:58:23 437.432
DELFI C3 30 May 20:51:03 20:53:45 18° 67° (ENE) 20:56:34 145.870
AUBIESAT-1 30 May 20:51:24 20:54:42 74° 290° (WNW) 20:58:04 437.475
CUBEBUG 2 30 May 20:56:15 21:00:21 30° 70° (ENE) 21:04:30 437.445
YUBILEINY 30 May 20:56:48 21:01:01 14° 283° (WNW) 21:04:37 435.215
Cosmos 2491 30 May 21:00:14 21:07:48 30° 294° (WNW) 21:15:11 435.465 / 435.565
BRITE-PL 30 May 21:03:05 21:07:43 30° 268° (W) 21:12:31 437.365/2234.400
ISS 30 May 21:17:14 21:19:22 17° 133° (SE) 21:21:34 145.825
Cosmos 2504 30 May 21:22:18 21:29:29 80° 265° (W) 21:36:44 435.465 / 435.565
DOVE 4 30 May 21:24:29 21:29:24 41° 264° (W) 21:34:24 437.250
FUNcube-1 30 May 21:33:07 21:37:27 43° 72° (ENE) 21:41:46 145.935
UWE-3 30 May 21:34:09 21:38:44 58° 75° (ENE) 21:43:20 435.000/436.395/437.385
50 SAT 30 May 21:36:11 21:37:18 11° 65° (ENE) 21:38:39 437.505
HUMSAT D 30 May 21:36:18 21:39:34 22° 68° (ENE) 21:42:54 437.325/437.525
HO-68 30 May 21:40:51 21:47:24 36° 264° (W) 21:53:52 435.675
AISAT 30 May 21:52:24 21:55:27 19° 66° (ENE) 21:58:41 437.250
CANX-2 30 May 21:53:54 21:56:35 16° 270° (W) 21:59:05 2200.000
CUTE 1.7 + AOD 2 30 May 21:56:43 21:59:27 16° 269° (W) 22:02:02 437.475
DANDE 30 May 22:05:57 22:09:13 14° 51° (NE) 22:12:35 436.750
CUSAT 1 30 May 22:08:33 22:12:17 16° 54° (NE) 22:15:52 437.405
UKube-1 30 May 22:08:36 22:12:44 47° 72° (ENE) 22:16:57 .
CINEMA 3 30 May 22:09:30 22:13:52 29° 266° (W) 22:18:11 145.822/145.860
SEEDS 30 May 22:13:26 22:15:29 13° 271° (W) 22:17:19 437.485
ZACube-1 30 May 22:15:15 22:19:49 66° 259° (W) 22:24:22 437.345
Oscar 11 30 May 22:18:48 22:22:44 33° 264° (W) 22:26:40 145.826/435.025
COMPASS 1 30 May 22:19:41 22:21:50 13° 271° (W) 22:23:48 437.405
DX 1 30 May 22:23:26 22:27:47 76° 75° (ENE) 22:32:11 434.975-435.025
DELFI C3 30 May 22:24:53 22:28:38 36° 263° (W) 22:32:21 145.870
TIGRISAT 30 May 22:27:31 22:29:57 15° 90° (E) 22:32:33 435.000
AAUSAT CUBESAT 2 30 May 22:28:28 22:30:20 12° 271° (W) 22:32:00 437.432
CUBEBUG 2 30 May 22:32:48 22:37:00 29° 266° (W) 22:41:07 437.445
CUBEBUG 1 30 May 22:40:40 22:44:25 29° 69° (ENE) 22:48:14 437.445
UNISAT 6 30 May 22:48:55 22:52:36 27° 94° (E) 22:56:16 437.425
DUCHIFAT 1 30 May 22:51:21 22:52:52 12° 88° (E) 22:54:38 145.980
ISS 30 May 22:52:19 22:55:31 57° 329° (NNW) 22:58:44 145.825
POPSAT HIP 1 30 May 22:52:41 22:54:32 13° 89° (E) 22:56:37 437.405
VELOX 1 30 May 22:54:00 22:58:26 79° 77° (ENE) 23:02:56 145.980
SPROUT 30 May 23:04:29 23:06:54 15° 65° (ENE) 23:09:29 437.525
50 SAT 30 May 23:07:36 23:11:34 62° 259° (W) 23:15:31 437.505
FUNcube-1 30 May 23:10:42 23:13:59 19° 269° (W) 23:17:08 145.935
HUMSAT D 30 May 23:11:11 23:15:09 34° 264° (W) 23:19:03 437.325/437.525
TISAT 1 30 May 23:11:37 23:13:30 13° 64° (ENE) 23:15:35 437.305
UWE-3 30 May 23:12:59 23:15:41 15° 271° (W) 23:18:11 435.000/436.395/437.385
ESTCUBE 1 30 May 23:13:38 23:18:06 76° 76° (ENE) 23:22:36 437.505/2401.250
Cosmos 2504 30 May 23:19:09 23:21:48 12° 281° (WNW) 23:23:54 435.465 / 435.565
GONETS M04 30 May 23:26:08 23:34:22 43° 72° (ENE) 23:42:37
AISAT 30 May 23:27:30 23:31:46 43° 262° (W) 23:36:03 437.250
ANTELSAT 30 May 23:31:55 23:36:18 82° 102° (ESE) 23:40:34 437.575/2403.000
QB50P1 30 May 23:34:35 23:38:34 38° 97° (E) 23:42:33 145.935-145.965
POLYITAN 1 30 May 23:38:56 23:43:02 43° 98° (E) 23:47:05 437.675
UKube-1 30 May 23:46:32 23:49:12 15° 269° (W) 23:51:43 .
DANDE 30 May 23:46:55 23:54:28 71° 77° (ENE) 00:00:13 436.750
CUSAT 1 30 May 23:49:35 23:56:28 87° 264° (W) 00:01:37 437.405
PCSat 30 May 23:56:48 00:02:01 54° 115° (ESE) 00:07:20 145.827
TIGRISAT 31 May 00:02:52 00:07:04 47° 288° (WNW) 00:11:09 435.000
NANOSAT C BR1 31 May 00:04:06 00:08:24 83° 100° (E) 00:12:39 145.865
VERMONT LUNAR 31 May 00:07:27 00:10:09 24° 156° (SSE) 00:12:52 437.305
O/OREOS (USA 219) 31 May 00:07:33 00:11:26 29° 59° (ENE) 00:15:22 437.305
QB50P2 31 May 00:15:25 00:19:42 72° 285° (WNW) 00:23:56 145.880/145.840
CUBEBUG 1 31 May 00:17:04 00:20:46 26° 266° (W) 00:24:26 437.445
DUCHIFAT 1 31 May 00:24:56 00:29:09 59° 286° (WNW) 00:33:18 145.980
UNISAT 6 31 May 00:25:40 00:29:21 27° 291° (WNW) 00:32:55 437.425
POPSAT HIP 1 31 May 00:26:39 00:30:51 55° 286° (WNW) 00:35:00 437.405
BUGSAT 1 31 May 00:28:21 00:32:39 79° 285° (WNW) 00:36:52 437.445
ITUPSAT 1 31 May 00:28:43 00:31:30 16° 63° (ENE) 00:34:29 437.325
ISS 31 May 00:30:10 00:32:27 17° 348° (NNW) 00:34:44 145.825
BEESAT 31 May 00:33:13 00:36:19 18° 64° (ENE) 00:39:35 436.000
SPROUT 31 May 00:38:21 00:42:36 53° 260° (W) 00:46:52 437.525
SWISSCUBE 31 May 00:41:46 00:45:26 23° 66° (ENE) 00:49:15 437.505
TISAT 1 31 May 00:44:36 00:48:49 61° 259° (W) 00:53:04 437.305
BEESAT 2 31 May 01:02:32 01:05:42 21° 44° (NE) 01:08:53 435.950
QB50P1 31 May 01:11:04 01:14:12 19° 293° (WNW) 01:17:12 145.935-145.965
ANTELSAT 31 May 01:12:06 01:12:29 10° 298° (WNW) 01:12:37 437.575/2403.000
POLYITAN 1 31 May 01:15:45 01:18:38 17° 294° (WNW) 01:21:23 437.675
AIST 2 31 May 01:21:20 01:23:04 12° 36° (NE) 01:24:55 435.215
GONETS M04 31 May 01:23:08 01:31:15 42° 272° (W) 01:39:09
SO-50 31 May 01:23:50 01:27:09 20° 111° (ESE) 01:30:41 436.795
PHONESAT 2.4 31 May 01:28:14 01:31:16 28° 157° (SSE) 01:34:19 2401.200-2431.200
DANDE 31 May 01:31:42 01:36:38 19° 280° (W) 01:40:36 436.750
CUSAT 1 31 May 01:35:24 01:37:39 12° 284° (WNW) 01:39:23 437.405
Cosmos 2499 31 May 01:39:11 01:46:04 53° 77° (ENE) 01:53:08 435.465 / 435.565
PCSat 31 May 01:41:19 01:45:48 25° 314° (NW) 01:50:14 145.827
VERMONT LUNAR 31 May 01:43:51 01:47:03 63° 172° (S) 01:50:15 437.305
BEESAT 3 31 May 01:45:05 01:49:08 61° 55° (NE) 01:53:07 437.485
O/OREOS (USA 219) 31 May 01:46:59 01:50:49 27° 256° (WSW) 01:54:34 437.305
STARS 31 May 01:57:42 01:59:59 14° 64° (ENE) 02:02:27 437.465
Gurwin Techsat 1B 31 May 01:59:36 02:01:38 12° 87° (E) 02:04:01 435.225
ITUPSAT 1 31 May 02:04:16 02:08:59 59° 260° (W) 02:13:42 437.325
ISS 31 May 02:07:44 02:09:48 16° 8° (N) 02:11:53 145.825
BEESAT 31 May 02:09:10 02:13:48 52° 260° (W) 02:18:28 436.000
Oscar 19 31 May 02:09:38 02:14:42 56° 100° (E) 02:19:45 437.125/150
SWISSCUBE 31 May 02:18:41 02:23:07 38° 263° (W) 02:27:33 437.505
ITAMSAT 1 31 May 02:33:51 02:38:15 28° 94° (E) 02:42:45 435.822/435.867
KKS-1 31 May 02:38:22 02:42:46 58° 73° (ENE) 02:47:13 437.445
BEESAT 2 31 May 02:40:05 02:43:59 42° 243° (WSW) 02:47:49 435.950
AIST 2 31 May 02:58:09 03:02:24 81° 56° (ENE) 03:06:33 435.215
SO-50 31 May 03:02:44 03:07:21 51° 309° (NW) 03:12:06 436.795
PHONESAT 2.4 31 May 03:05:39 03:09:07 66° 173° (S) 03:12:35 2401.200-2431.200
JAS-2 31 May 03:20:38 03:22:49 13° 88° (E) 03:25:22 435.910
VERMONT LUNAR 31 May 03:20:57 03:24:09 62° 189° (S) 03:27:19 437.305
BEESAT 3 31 May 03:24:54 03:26:39 12° 250° (WSW) 03:28:13 437.485
HORYU 2 31 May 03:25:09 03:26:40 12° 88° (E) 03:28:27 437.375
STARS 31 May 03:31:36 03:35:59 60° 259° (W) 03:40:25 437.465
Cosmos 2499 31 May 03:33:09 03:38:51 26° 274° (W) 03:44:27 435.465 / 435.565
Gurwin Techsat 1B 31 May 03:37:02 03:42:22 81° 286° (WNW) 03:47:42 435.225
ISS 31 May 03:43:47 03:46:53 38° 27° (NNE) 03:49:58 145.825
Oscar 19 31 May 03:50:02 03:53:40 19° 297° (WNW) 03:57:08 437.125/150
AO-7 31 May 04:00:02 04:07:07 31° 94° (E) 04:14:22 29.400- 29.500
ITAMSAT 1 31 May 04:13:03 04:17:51 37° 291° (WNW) 04:22:36 435.822/435.867
KKS-1 31 May 04:17:31 04:19:51 13° 271° (W) 04:21:58 437.445
MOZHAYETS 4 31 May 04:39:36 04:44:11 89° 73° (ENE) 04:48:46
PHONESAT 2.4 31 May 04:43:41 04:47:09 62° 190° (S) 04:50:35 2401.200-2431.200
SO-50 31 May 04:47:38 04:49:07 11° 330° (NNW) 04:50:26 436.795
CUBESAT XI-V 31 May 04:57:10 04:58:50 12° 62° (ENE) 05:00:45 437.345
VERMONT LUNAR 31 May 04:58:24 05:01:02 23° 204° (SSW) 05:03:38 437.305
HORYU 2 31 May 04:59:26 05:03:51 64° 286° (WNW) 05:08:12 437.375
JAS-2 31 May 05:03:26 05:08:37 72° 286° (WNW) 05:14:03 435.910
Cosmos 2491 31 May 05:12:03 05:19:36 32° 67° (ENE) 05:27:18 435.465 / 435.565
Gurwin Techsat 1B 31 May 05:19:47 05:21:36 11° 301° (WNW) 05:23:08 435.225
ISS 31 May 05:20:23 05:23:13 27° 224° (SW) 05:26:00 145.825
Cubesat XI-IV 31 May 05:44:32 05:45:25 11° 86° (E) 05:46:40 437.490
AO-7 31 May 05:52:12 06:00:26 61° 293° (WNW) 06:08:35 29.400- 29.500
PRISM 31 May 05:57:15 06:00:13 20° 67° (ENE) 06:03:18 437.425
M-CUBED/EXP-1 PRIME 31 May 06:03:04 06:05:00 14° 62° (ENE) 06:07:02 437.505
YUBILEINY 31 May 06:03:22 06:10:02 26° 83° (E) 06:16:59 435.215
AUBIESAT-1 31 May 06:07:00 06:08:44 13° 62° (ENE) 06:10:34 437.475
RS-15 31 May 06:18:12 06:21:27 12° 98° (E) 06:25:48 29.354- 29.394
PHONESAT 2.4 31 May 06:22:05 06:24:56 23° 205° (SSW) 06:27:45 2401.200-2431.200
STRAND 1 31 May 06:24:57 06:29:41 41° 70° (ENE) 06:34:29 437.568
CUBESAT XI-V 31 May 06:31:07 06:35:43 77° 259° (WSW) 06:40:22 437.345
AIST 1 31 May 06:38:44 06:42:18 24° 72° (ENE) 06:45:56
CUTE-I 31 May 06:59:01 07:04:18 55° 100° (E) 07:09:34 437.470
PCSat 31 May 07:04:33 07:04:39 10° 31° (NNE) 07:04:59 145.827
Cosmos 2491 31 May 07:08:26 07:17:04 59° 268° (W) 07:25:34 435.465 / 435.565
Cubesat XI-IV 31 May 07:21:00 07:26:24 88° 99° (E) 07:31:48 437.490
BRITE-PL 31 May 07:31:11 07:33:20 13° 84° (E) 07:35:46 437.365/2234.400
PRISM 31 May 07:31:46 07:35:30 33° 263° (W) 07:39:13 437.425
M-CUBED/EXP-1 PRIME 31 May 07:35:37 07:39:37 50° 254° (WSW) 07:43:18 437.505
AUBIESAT-1 31 May 07:39:17 07:43:15 53° 255° (WSW) 07:46:55 437.475
AO-7 31 May 07:47:24 07:51:43 15° 314° (NW) 07:55:37 29.400- 29.500
